DMSP 5D-2 F13 DEB, 42279

Orbit data source: Space-Track

DMSP 5D-2 F13 DEB, 42279 is space debris in SSO originally from a launch on Fri, 24 Mar 1995 UTC launched from the Air Force Western Test Range (AFWTR). Debris objects in space refer to the collection of defunct objects orbiting the Earth. Examples of debris include non-operational satellites, rocket bodies, and fragments generated from explosions, collisions, or faulty payload assembly.

Not visible in the next 10 days
Identifier
42279, 1995-015GV
Orbit
SSO
Country
Flag of USUS
Related business
Manufacturer
Unknown
Mission
Spacecraft
Bus & Motor
Unknown
Mass
Unknown
Launch date (UTC)
1995-03-24 (31 years ago)
Launch vehicle
Unknown
Launch site
Air Force Western Test Range (AFWTR)
Object type
Payload
Rocket body
Debris
Shape & HBR
Unknown shape, 0.1 m
Radar Cross Section
Small (<0.1 m²)

Expand to show TLE details & history
Last TLE update: 4 weeks ago

TLE from 4 weeks ago
0 DMSP 5D-2 F13 DEB
1 42279U 95015GV  26094.46774113  .00851204  00000-0  21006-1 0  9998
2 42279  98.7146 182.3284 0014650 263.6856  96.2716 15.37964958571978
Epoch: 2026-04-04T11:13Z
TLE epoch observation values (Epoch: 2026-04-04T11:13:32.833Z)
Latitude
-0.00007°
Longitude
-178.84549°
Altitude
456.309 km
Speed
7.638 km/s
True Right ascension
12h 09m 18s
True Declination
0° 00' 00"
Sunlit
Object was in full shadow at epoch
Visualization orbit readout
Latitude
Unknown
Longitude
Unknown
Altitude
Unknown
Speed
Unknown
Apparent Right ascension
Unknown
Apparent Declination
Unknown
Sunlit
N/A
Visualization observer readout
Local Sidereal Time
16:43:06
Azimuth
Unknown
Elevation
Unknown
Doppler factor
Unknown
Orbital elements
Apogee altitude
459.133 km
Perigee altitude
439.129 km
Semi-major axis
6,827.268 km
Eccentricity
0.00147
Inclination
98.7146°
RAAN
182.3284°
Arg. of periapsis
263.6856°
True anomaly
96.43844°
Mean anomaly
96.2716°
Eccentric anomaly
96.35502°
Mean motion
3.84745 °/min
Orbital period
93.57 mins
BSTAR
0.021006

Documentation

Showing up to 5 results
|